Powrót do katalogu

LUNA-2

AktywnyNaukaSSO
NORAD 68470·PAYLOAD·🇺🇸 United States

Wystrzelony Mar 30, 2026 z Vandenberg Space Force Base

Loading…

Następne Przeloty (najbliższe 24 godziny)

TLE

ŚwieżeSource: Space-Track

Epoka: Sep 14, 2026, 07:46 UTC

1 68470U 26067BG  26257.32411497  .00006124  00000-0  30095-3 0  9992
2 68470  97.4573 214.2231 0008653 112.8782 247.3366 15.18373464 25457

Śledź LUNA-2 w czasie rzeczywistym z AllMySat

Download on the App Store